This is the latest recevied weather packets stored in our database for station/object KI6SYE. If no packets are shown the sender has not sent any weather packets the latest 10 day(s).
| Time | Temp. | Humidity | Pressure | Rain* | Wind** | Luminosity | Snow |
|---|---|---|---|---|---|---|---|
| 1778015520 | 17.78° C | 68% | 1014.9 hPa | 0 mm | - | 473 W/m² | - |
| 1778015217 | 17.78° C | 67% | 1015.1 hPa | 0 mm | - | 767 W/m² | - |
| 1778014914 | 17.22° C | 69% | 1015.2 hPa | 0 mm | - | 746 W/m² | - |
| 1778014611 | 17.78° C | 67% | 1015 hPa | 0 mm | - | 747 W/m² | - |
| 1778014309 | 17.22° C | 69% | 1015.1 hPa | 0 mm | - | 776 W/m² | - |
| 1778014005 | 17.22° C | 70% | 1015 hPa | 0 mm | - | 594 W/m² | - |
| 1778013704 | 17.22° C | 69% | 1015.1 hPa | 0 mm | - | 410 W/m² | - |
| 1778013400 | 17.22° C | 69% | 1015.1 hPa | 0 mm | - | 479 W/m² | - |
| 1778013097 | 17.22° C | 69% | 1015 hPa | 0 mm | - | 419 W/m² | - |
| 1778012792 | 17.22° C | 68% | 1015.1 hPa | 0 mm | - | 388 W/m² | - |
| 1778012489 | 16.67° C | 69% | 1014.9 hPa | 0 mm | - | 436 W/m² | - |
| 1778012185 | 16.67° C | 70% | 1014.9 hPa | 0 mm | - | 383 W/m² | - |
| 1778011883 | 16.67° C | 69% | 1015.1 hPa | 0 mm | - | 406 W/m² | - |
| 1778011581 | 17.22° C | 69% | 1015 hPa | 0 mm | - | 406 W/m² | - |
| 1778011278 | 17.22° C | 68% | 1015 hPa | 0 mm | - | 542 W/m² | - |
| 1778010974 | 16.67° C | 68% | 1015 hPa | 0 mm | - | 708 W/m² | - |
| 1778010671 | 17.22° C | 68% | 1015.3 hPa | 0 mm | - | 431 W/m² | - |
| 1778010368 | 17.78° C | 69% | 1015 hPa | 0 mm | - | 971 W/m² | - |
| 1778010064 | 17.22° C | 71% | 1015.3 hPa | 0 mm | - | 886 W/m² | - |
| 1778009761 | 16.67° C | 71% | 1015.2 hPa | 0 mm | - | 869 W/m² | - |
| 1778009458 | 17.22° C | 70% | 1015.4 hPa | 0 mm | - | 866 W/m² | - |
| 1778009157 | 16.67° C | 71% | 1015.2 hPa | 0 mm | - | 713 W/m² | - |
| 1778008854 | 16.67° C | 73% | 1015.4 hPa | 0 mm | - | 440 W/m² | - |
| 1778008552 | 16.67° C | 71% | 1015.3 hPa | 0 mm | - | 560 W/m² | - |
| 1778008249 | 16.67° C | 72% | 1015.3 hPa | 0 mm | - | 733 W/m² | - |
* Rain latest hour (hover to see other rain measurements)
** Current wind speed in m/s (hover to see current wind gust speed)